"datetime","temp","dp","rain_mm","uv","solar","mb","wind_mph","gust_mph","windchill","rh"
"2014-05-23 00:00:00",11.6,11.0,0.0,0.0,0,1001.5,1,3,"",96
"2014-05-23 00:01:00",11.6,11.0,0.0,0.0,0,1001.5,1,1,"",96
"2014-05-23 00:02:00",11.6,11.0,0.0,0.0,0,1001.5,1,1,"",96
"2014-05-23 00:03:00",11.6,11.0,0.0,0.0,0,1001.5,1,1,"",96
"2014-05-23 00:04:00",11.6,11.0,0.0,0.0,0,1001.5,1,7,"",96
"2014-05-23 00:05:00",11.7,11.1,0.0,0.0,0,1001.5,2,3,"",96
"2014-05-23 00:06:00",11.7,11.1,0.0,0.0,0,1001.5,1,0,"",96
"2014-05-23 00:07:00",11.7,11.1,0.0,0.0,0,1001.6,0,3,"",96
"2014-05-23 00:08:00",11.7,11.1,0.0,0.0,0,1001.6,2,5,"",96
"2014-05-23 00:09:00",11.7,11.1,0.0,0.0,0,1001.6,2,5,"",96
"2014-05-23 00:10:00",11.7,11.1,0.0,0.0,0,1001.6,2,1,"",96
"2014-05-23 00:11:00",11.7,11.1,0.0,0.0,0,1001.5,2,5,"",96
"2014-05-23 00:12:00",11.7,11.1,0.0,0.0,0,1001.5,1,1,"",96
"2014-05-23 00:13:00",11.7,11.1,0.0,0.0,0,1001.6,1,3,"",96
"2014-05-23 00:14:00",11.7,11.1,0.0,0.0,0,1001.6,2,5,"",96
"2014-05-23 00:15:00",11.7,11.1,0.0,0.0,0,1001.5,3,8,"",96
"2014-05-23 00:16:00",11.7,11.1,0.2,0.0,0,1001.6,3,5,"",96
"2014-05-23 00:17:00",11.7,11.1,0.2,0.0,0,1001.6,3,5,"",96
"2014-05-23 00:18:00",11.7,10.9,0.2,0.0,0,1001.5,2,10,"",95
"2014-05-23 00:19:00",11.7,10.9,0.2,0.0,0,1001.6,5,10,"",95
"2014-05-23 00:20:00",11.7,10.9,0.2,0.0,0,1001.5,5,5,"",95
"2014-05-23 00:21:00",11.7,10.9,0.2,0.0,0,1001.6,2,3,"",95
"2014-05-23 00:22:00",11.7,10.9,0.4,0.0,0,1001.6,3,8,"",95
"2014-05-23 00:23:00",11.7,10.9,0.4,0.0,0,1001.6,3,7,"",95
"2014-05-23 00:24:00",11.6,10.9,0.4,0.0,0,1001.6,2,3,"",95
"2014-05-23 00:25:00",11.6,10.9,0.4,0.0,0,1001.6,2,3,"",95
"2014-05-23 00:26:00",11.6,10.8,0.4,0.0,0,1001.6,1,5,"",95
"2014-05-23 00:27:00",11.6,10.8,0.4,0.0,0,1001.6,2,7,"",95
"2014-05-23 00:28:00",11.6,10.8,0.4,0.0,0,1001.6,2,3,"",95
"2014-05-23 00:29:00",11.6,10.8,0.4,0.0,0,1001.6,1,3,"",95
"2014-05-23 00:30:00",11.6,10.8,0.4,0.0,0,1001.6,2,5,"",95
"2014-05-23 00:31:00",11.6,10.8,0.4,0.0,0,1001.6,1,3,"",95
"2014-05-23 00:32:00",11.6,10.8,0.4,0.0,0,1001.6,2,3,"",95
"2014-05-23 00:33:00",11.6,10.8,0.4,0.0,0,1001.6,2,5,"",95
"2014-05-23 00:34:00",11.6,10.6,0.4,0.0,0,1001.6,2,3,"",94
"2014-05-23 00:35:00",11.6,10.6,0.4,0.0,0,1001.6,0,1,"",94
"2014-05-23 00:36:00",11.6,10.8,0.4,0.0,0,1001.6,1,7,"",95
"2014-05-23 00:37:00",11.5,10.8,0.4,0.0,0,1001.6,3,5,"",95
"2014-05-23 00:38:00",11.5,10.7,0.4,0.0,0,1001.6,2,8,"",95
"2014-05-23 00:39:00",11.5,10.7,0.4,0.0,0,1001.6,3,5,"",95
"2014-05-23 00:40:00",11.5,10.7,0.4,0.0,0,1001.6,2,5,"",95
"2014-05-23 00:41:00",11.5,10.7,0.4,0.0,0,1001.7,3,7,"",95
"2014-05-23 00:42:00",11.5,10.7,0.4,0.0,0,1001.6,1,5,"",95
"2014-05-23 00:43:00",11.5,10.6,0.4,0.0,0,1001.6,2,8,"",94
"2014-05-23 00:44:00",11.5,10.6,0.4,0.0,0,1001.6,5,7,"",94
"2014-05-23 00:45:00",11.5,10.6,0.4,0.0,0,1001.6,1,1,"",94
"2014-05-23 00:46:00",11.5,10.6,0.4,0.0,0,1001.7,0,1,"",94
"2014-05-23 00:47:00",11.5,10.6,0.4,0.0,0,1001.7,1,7,"",94
"2014-05-23 00:48:00",11.5,10.6,0.4,0.0,0,1001.7,2,3,"",94
"2014-05-23 00:49:00",11.5,10.6,0.4,0.0,0,1001.7,1,3,"",94
"2014-05-23 00:50:00",11.5,10.6,0.4,0.0,0,1001.7,2,8,"",94
"2014-05-23 00:51:00",11.5,10.6,0.4,0.0,0,1001.6,2,3,"",94
"2014-05-23 00:52:00",11.5,10.6,0.4,0.0,0,1001.7,2,8,"",94
"2014-05-23 00:53:00",11.5,10.5,0.4,0.0,0,1001.7,1,3,"",94
"2014-05-23 00:54:00",11.5,10.5,0.4,0.0,0,1001.7,1,3,"",94
"2014-05-23 00:55:00",11.4,10.5,0.4,0.0,0,1001.8,1,3,"",94
"2014-05-23 00:56:00",11.4,10.5,0.4,0.0,0,1001.7,1,8,"",94
"2014-05-23 00:57:00",11.4,10.5,0.4,0.0,0,1001.7,3,7,"",94
"2014-05-23 00:58:00",11.4,10.5,0.4,0.0,0,1001.8,3,5,"",94
"2014-05-23 00:59:00",11.3,10.3,0.4,0.0,0,1001.7,3,5,"",94
"2014-05-23 01:00:00",11.2,10.1,0.4,0.0,0,1001.7,2,7,"",93
"2014-05-23 01:01:00",11.2,10.1,0.4,0.0,0,1001.7,2,7,"",93
"2014-05-23 01:02:00",11.2,10.1,0.6,0.0,0,1001.7,2,8,"",93
"2014-05-23 01:03:00",11.2,10.1,0.6,0.0,0,1001.8,2,5,"",93
"2014-05-23 01:04:00",11.2,10.1,0.6,0.0,0,1001.7,2,5,"",93
"2014-05-23 01:05:00",11.3,10.2,0.6,0.0,0,1001.7,2,3,"",93
"2014-05-23 01:06:00",11.3,10.2,0.6,0.0,0,1001.7,1,0,"",93
"2014-05-23 01:07:00",11.3,10.2,0.6,0.0,0,1001.7,0,3,"",93
"2014-05-23 01:08:00",11.3,10.2,0.6,0.0,0,1001.8,1,1,"",93
"2014-05-23 01:09:00",11.3,10.2,0.6,0.0,0,1001.8,0,1,"",93
"2014-05-23 01:10:00",11.3,10.4,0.6,0.0,0,1001.7,0,1,"",94
"2014-05-23 01:11:00",11.3,10.3,0.6,0.0,0,1001.7,1,3,"",94
"2014-05-23 01:12:00",11.3,10.3,0.6,0.0,0,1001.7,1,3,"",94
"2014-05-23 01:13:00",11.3,10.3,0.6,0.0,0,1001.7,2,3,"",94
"2014-05-23 01:14:00",11.2,10.3,0.6,0.0,0,1001.7,1,3,"",94
"2014-05-23 01:15:00",11.2,10.3,0.6,0.0,0,1001.7,0,1,"",94
"2014-05-23 01:16:00",11.2,10.3,0.6,0.0,0,1001.7,1,3,"",94
"2014-05-23 01:17:00",11.2,10.3,0.6,0.0,0,1001.7,1,3,"",94
"2014-05-23 01:18:00",11.2,10.3,0.6,0.0,0,1001.7,1,3,"",94
"2014-05-23 01:19:00",11.2,10.1,0.6,0.0,0,1001.7,1,3,"",93
"2014-05-23 01:20:00",11.2,10.1,0.6,0.0,0,1001.7,1,3,"",93
"2014-05-23 01:21:00",11.2,10.2,0.6,0.0,0,1001.7,1,1,"",94
"2014-05-23 01:22:00",11.3,10.2,0.6,0.0,0,1001.6,1,1,"",93
"2014-05-23 01:23:00",11.3,10.2,0.6,0.0,0,1001.7,1,3,"",93
"2014-05-23 01:24:00",11.3,10.2,0.6,0.0,0,1001.7,2,3,"",93
"2014-05-23 01:25:00",11.3,10.2,0.6,0.0,0,1001.6,1,3,"",93
"2014-05-23 01:26:00",11.2,10.2,0.6,0.0,0,1001.7,1,1,"",94
"2014-05-23 01:27:00",11.3,10.2,0.6,0.0,0,1001.7,0,1,"",93
"2014-05-23 01:28:00",11.2,10.1,0.6,0.0,0,1001.7,1,3,"",93
"2014-05-23 01:29:00",11.2,10.1,0.6,0.0,0,1001.6,2,5,"",93
"2014-05-23 01:30:00",11.2,10.1,0.6,0.0,0,1001.6,1,1,"",93
"2014-05-23 01:31:00",11.2,10.1,0.6,0.0,0,1001.6,0,3,"",93
"2014-05-23 01:32:00",11.2,10.1,0.6,0.0,0,1001.7,1,1,"",93
"2014-05-23 01:33:00",11.2,10.1,0.6,0.0,0,1001.6,1,5,"",93
"2014-05-23 01:34:00",11.2,10.1,0.6,0.0,0,1001.6,2,5,"",93
"2014-05-23 01:35:00",11.2,10.1,0.6,0.0,0,1001.7,2,5,"",93
"2014-05-23 01:36:00",11.2,10.1,0.6,0.0,0,1001.6,1,1,"",93
"2014-05-23 01:37:00",11.2,10.1,0.6,0.0,0,1001.6,1,1,"",93
"2014-05-23 01:38:00",11.2,10.1,0.6,0.0,0,1001.6,0,0,"",93
"2014-05-23 01:39:00",11.2,10.1,0.6,0.0,0,1001.6,0,1,"",93
"2014-05-23 01:40:00",11.2,10.1,0.6,0.0,0,1001.6,0,1,"",93
"2014-05-23 01:41:00",11.1,10.0,0.6,0.0,0,1001.6,1,3,"",93
"2014-05-23 01:42:00",11.1,10.0,0.6,0.0,0,1001.6,2,3,"",93
"2014-05-23 01:43:00",11.1,10.0,0.6,0.0,0,1001.6,2,3,"",93
"2014-05-23 01:44:00",11.1,10.0,0.6,0.0,0,1001.5,2,3,"",93
"2014-05-23 01:45:00",11.1,10.0,0.6,0.0,0,1001.6,1,3,"",93
"2014-05-23 01:46:00",11.1,10.0,0.6,0.0,0,1001.6,2,3,"",93
"2014-05-23 01:47:00",11.1,10.0,0.6,0.0,0,1001.6,2,3,"",93
"2014-05-23 01:48:00",11.1,10.0,0.6,0.0,0,1001.6,1,1,"",93
"2014-05-23 01:49:00",11.1,10.0,0.6,0.0,0,1001.7,1,7,"",93
"2014-05-23 01:50:00",11.2,10.1,0.6,0.0,0,1001.6,2,7,"",93
"2014-05-23 01:51:00",11.2,10.1,0.6,0.0,0,1001.6,1,3,"",93
"2014-05-23 01:52:00",11.2,9.9,0.6,0.0,0,1001.6,1,1,"",92
"2014-05-23 01:53:00",11.2,9.9,0.6,0.0,0,1001.6,1,3,"",92
"2014-05-23 01:54:00",11.2,9.9,0.6,0.0,0,1001.6,1,1,"",92
"2014-05-23 01:55:00",11.2,9.9,0.6,0.0,0,1001.6,1,5,"",92
"2014-05-23 01:56:00",11.2,9.9,0.6,0.0,0,1001.7,1,1,"",92
"2014-05-23 01:57:00",11.2,9.9,0.6,0.0,0,1001.6,0,1,"",92
"2014-05-23 01:58:00",11.2,9.9,0.6,0.0,0,1001.6,0,0,"",92
"2014-05-23 01:59:00",11.2,9.9,0.6,0.0,0,1001.7,0,5,"",92
"2014-05-23 02:00:00",11.2,9.9,0.6,0.0,0,1001.6,2,5,"",92
"2014-05-23 02:01:00",11.1,10.0,0.6,0.0,0,1001.7,1,5,"",93
"2014-05-23 02:02:00",11.1,10.0,0.6,0.0,0,1001.7,2,3,"",93
"2014-05-23 02:03:00",11.1,10.0,0.6,0.0,0,1001.8,2,7,"",93
"2014-05-23 02:04:00",11.1,9.8,0.6,0.0,0,1001.8,2,7,"",92
"2014-05-23 02:05:00",11.1,9.8,0.6,0.0,0,1001.7,3,7,"",92
"2014-05-23 02:06:00",11.1,9.8,0.6,0.0,0,1001.7,2,3,"",92
"2014-05-23 02:07:00",11.1,9.7,0.6,0.0,0,1001.7,1,3,"",91
"2014-05-23 02:08:00",11.1,9.9,0.6,0.0,0,1001.7,2,7,"",92
"2014-05-23 02:09:00",11.1,9.7,0.6,0.0,0,1001.7,2,3,"",91
"2014-05-23 02:10:00",11.1,9.7,0.6,0.0,0,1001.7,2,3,"",91
"2014-05-23 02:11:00",11.1,9.7,0.6,0.0,0,1001.7,1,3,"",91
"2014-05-23 02:12:00",11.1,9.7,0.6,0.0,0,1001.6,2,3,"",91
"2014-05-23 02:13:00",11.1,9.7,0.6,0.0,0,1001.7,2,3,"",91
"2014-05-23 02:14:00",11.1,9.7,0.6,0.0,0,1001.7,2,5,"",91
"2014-05-23 02:15:00",11.1,9.7,0.6,0.0,0,1001.6,2,3,"",91
"2014-05-23 02:16:00",11.1,9.7,0.6,0.0,0,1001.6,0,1,"",91
"2014-05-23 02:17:00",11.1,9.7,0.6,0.0,0,1001.6,1,7,"",91
"2014-05-23 02:18:00",11.1,9.6,0.6,0.0,0,1001.6,2,1,"",90
"2014-05-23 02:19:00",11.0,9.6,0.6,0.0,0,1001.7,0,0,"",91
"2014-05-23 02:20:00",11.0,9.7,0.6,0.0,0,1001.6,0,1,"",92
"2014-05-23 02:21:00",10.9,9.7,0.6,0.0,0,1001.7,1,3,"",92
"2014-05-23 02:22:00",10.9,9.7,0.6,0.0,0,1001.7,1,5,"",92
"2014-05-23 02:23:00",10.9,9.5,0.6,0.0,0,1001.7,2,3,"",91
"2014-05-23 02:24:00",10.9,9.5,0.6,0.0,0,1001.7,2,7,"",91
"2014-05-23 02:25:00",10.9,9.5,0.6,0.0,0,1001.7,2,3,"",91
"2014-05-23 02:26:00",10.9,9.5,0.6,0.0,0,1001.7,2,3,"",91
"2014-05-23 02:27:00",11.0,9.6,0.6,0.0,0,1001.7,1,1,"",91
"2014-05-23 02:28:00",11.0,9.6,0.6,0.0,0,1001.7,0,3,"",91
"2014-05-23 02:29:00",11.0,9.6,0.6,0.0,0,1001.7,1,5,"",91
"2014-05-23 02:30:00",11.0,9.5,0.6,0.0,0,1001.7,3,7,"",90
"2014-05-23 02:31:00",11.0,9.5,0.6,0.0,0,1001.8,2,7,"",90
"2014-05-23 02:32:00",11.0,9.6,0.6,0.0,0,1001.7,2,3,"",91
"2014-05-23 02:33:00",11.0,9.4,0.6,0.0,0,1001.7,1,3,"",90
"2014-05-23 02:34:00",11.0,9.4,0.6,0.0,0,1001.8,1,3,"",90
"2014-05-23 02:35:00",11.0,9.4,0.6,0.0,0,1001.7,2,5,"",90
"2014-05-23 02:36:00",11.1,9.5,0.6,0.0,0,1001.7,3,5,"",90
"2014-05-23 02:37:00",11.1,9.5,0.6,0.0,0,1001.7,2,3,"",90
"2014-05-23 02:38:00",11.1,9.3,0.6,0.0,0,1001.7,1,1,"",89
"2014-05-23 02:39:00",11.0,9.5,0.6,0.0,0,1001.7,1,5,"",90
"2014-05-23 02:40:00",11.0,9.4,0.6,0.0,0,1001.6,1,1,"",90
"2014-05-23 02:41:00",11.0,9.4,0.6,0.0,0,1001.6,1,1,"",90
"2014-05-23 02:42:00",10.9,9.4,0.6,0.0,0,1001.7,1,5,"",90
"2014-05-23 02:43:00",10.9,9.4,0.6,0.0,0,1001.7,3,14,"",90
"2014-05-23 02:44:00",10.9,9.3,0.6,0.0,0,1001.7,5,5,"",90
"2014-05-23 02:45:00",10.9,9.3,0.6,0.0,0,1001.7,2,7,"",90
"2014-05-23 02:46:00",10.9,9.3,0.6,0.0,0,1001.7,3,3,"",90
"2014-05-23 02:47:00",10.9,9.3,0.6,0.0,0,1001.7,1,3,"",90
"2014-05-23 02:48:00",10.9,9.3,0.6,0.0,0,1001.7,1,3,"",90
"2014-05-23 02:49:00",10.9,9.3,0.6,0.0,0,1001.7,1,1,"",90
"2014-05-23 02:50:00",10.9,9.3,0.6,0.0,0,1001.7,2,7,"",90
"2014-05-23 02:51:00",10.9,9.3,0.6,0.0,0,1001.8,3,3,"",90
"2014-05-23 02:52:00",10.9,9.2,0.6,0.0,0,1001.7,1,3,"",89
"2014-05-23 02:53:00",10.9,9.2,0.6,0.0,0,1001.7,2,5,"",89
"2014-05-23 02:54:00",10.9,9.2,0.6,0.0,0,1001.7,5,14,"",89
"2014-05-23 02:55:00",10.9,9.2,0.6,0.0,0,1001.7,6,12,"",89
"2014-05-23 02:56:00",11.0,9.1,0.6,0.0,0,1001.7,5,5,"",88
"2014-05-23 02:57:00",11.0,9.1,0.6,0.0,0,1001.7,2,3,"",88
"2014-05-23 02:58:00",11.0,9.1,0.6,0.0,0,1001.7,1,12,"",88
"2014-05-23 02:59:00",11.0,9.1,0.6,0.0,0,1001.7,3,12,"",88
"2014-05-23 03:00:00",11.0,9.1,0.6,0.0,0,1001.7,3,5,"",88
"2014-05-23 03:01:00",11.0,9.1,0.6,0.0,0,1001.6,1,1,"",88
"2014-05-23 03:02:00",11.0,9.1,0.6,0.0,0,1001.6,1,7,"",88
"2014-05-23 03:03:00",11.0,9.1,0.6,0.0,0,1001.6,2,5,"",88
"2014-05-23 03:04:00",11.0,9.1,0.6,0.0,0,1001.6,0,3,"",88
"2014-05-23 03:05:00",10.9,9.2,0.6,0.0,0,1001.6,1,3,"",89
"2014-05-23 03:06:00",10.9,9.2,0.6,0.0,0,1001.6,2,14,"",89
"2014-05-23 03:07:00",10.9,9.2,0.6,0.0,0,1001.6,3,3,"",89
"2014-05-23 03:08:00",10.9,9.1,0.6,0.0,0,1001.6,1,1,"",89
"2014-05-23 03:09:00",10.9,9.1,0.6,0.0,0,1001.6,1,7,"",89
"2014-05-23 03:10:00",10.8,9.1,0.6,0.0,0,1001.6,2,7,"",89
"2014-05-23 03:11:00",10.8,9.1,0.6,0.0,0,1001.6,3,5,"",89
"2014-05-23 03:12:00",10.8,8.9,0.6,0.0,0,1001.6,2,3,"",88
"2014-05-23 03:13:00",10.9,9.1,0.6,0.0,0,1001.6,2,3,"",89
"2014-05-23 03:14:00",10.9,9.0,0.6,0.0,0,1001.6,1,3,"",88
"2014-05-23 03:15:00",10.9,9.1,0.6,0.0,0,1001.6,2,3,"",89
"2014-05-23 03:16:00",10.9,9.0,0.6,0.0,0,1001.6,3,10,"",88
"2014-05-23 03:17:00",10.9,9.0,0.6,0.0,0,1001.7,3,3,"",88
"2014-05-23 03:18:00",10.9,9.0,0.6,0.0,0,1001.7,1,3,"",88
"2014-05-23 03:19:00",10.9,9.0,0.6,0.0,0,1001.7,1,1,"",88
"2014-05-23 03:20:00",10.9,9.1,0.6,0.0,0,1001.7,1,5,"",89
"2014-05-23 03:21:00",10.9,9.1,0.6,0.0,0,1001.7,2,5,"",89
"2014-05-23 03:22:00",10.8,9.1,0.6,0.0,0,1001.7,2,5,"",89
"2014-05-23 03:23:00",10.8,9.1,0.6,0.0,0,1001.7,2,3,"",89
"2014-05-23 03:24:00",10.8,9.1,0.6,0.0,0,1001.8,2,3,"",89
"2014-05-23 03:25:00",10.8,9.0,0.6,0.0,0,1001.8,0,1,"",89
"2014-05-23 03:26:00",10.8,9.2,0.6,0.0,0,1001.8,1,3,"",90
"2014-05-23 03:27:00",10.8,9.0,0.6,0.0,0,1001.8,2,3,"",89
"2014-05-23 03:28:00",10.8,9.0,0.6,0.0,0,1001.8,2,3,"",89
"2014-05-23 03:29:00",10.8,8.9,0.6,0.0,0,1001.7,1,3,"",88
"2014-05-23 03:30:00",10.8,8.9,0.6,0.0,0,1001.8,1,3,"",88
"2014-05-23 03:31:00",10.8,8.9,0.6,0.0,0,1001.8,1,5,"",88
"2014-05-23 03:32:00",10.8,8.9,0.6,0.0,0,1001.7,2,3,"",88
"2014-05-23 03:33:00",10.8,8.9,0.6,0.0,0,1001.7,2,1,"",88
"2014-05-23 03:34:00",10.8,8.9,0.6,0.0,0,1001.7,1,3,"",88
"2014-05-23 03:35:00",10.8,8.9,0.6,0.0,0,1001.7,2,7,"",88
"2014-05-23 03:36:00",10.8,8.9,0.6,0.0,0,1001.7,2,7,"",88
"2014-05-23 03:37:00",10.8,8.9,0.6,0.0,0,1001.7,0,1,"",88
"2014-05-23 03:38:00",10.8,8.9,0.6,0.0,0,1001.8,0,0,"",88
"2014-05-23 03:39:00",10.8,8.9,0.6,0.0,0,1001.8,0,5,"",88
"2014-05-23 03:40:00",10.8,8.9,0.6,0.0,0,1001.7,2,5,"",88
"2014-05-23 03:41:00",10.8,8.9,0.6,0.0,0,1001.8,2,5,"",88
"2014-05-23 03:42:00",10.8,8.7,0.6,0.0,0,1001.8,2,3,"",87
"2014-05-23 03:43:00",10.8,8.6,0.6,0.0,0,1001.8,1,1,"",86
"2014-05-23 03:44:00",10.8,8.8,0.6,0.0,0,1001.8,1,3,"",87
"2014-05-23 03:45:00",10.8,8.9,0.6,0.0,0,1001.8,1,3,"",88
"2014-05-23 03:46:00",10.8,8.6,0.6,0.0,0,1001.7,1,1,"",86
"2014-05-23 03:47:00",10.8,8.6,0.6,0.0,0,1001.7,1,7,"",86
"2014-05-23 03:48:00",10.8,8.6,0.6,0.0,0,1001.7,2,7,"",86
"2014-05-23 03:49:00",10.8,8.8,0.6,0.0,0,1001.7,1,1,"",87
"2014-05-23 03:50:00",10.8,8.8,0.6,0.0,0,1001.8,2,10,"",87
"2014-05-23 03:51:00",10.8,8.7,0.6,0.0,0,1001.7,3,3,"",87
"2014-05-23 03:52:00",10.8,8.7,0.6,0.0,0,1001.7,1,1,"",87
"2014-05-23 03:53:00",10.8,8.7,0.6,0.0,0,1001.7,1,3,"",87
"2014-05-23 03:54:00",10.8,8.7,0.6,0.0,0,1001.7,0,1,"",87
"2014-05-23 03:55:00",10.7,8.6,0.6,0.0,0,1001.7,1,5,"",87
"2014-05-23 03:56:00",10.7,8.6,0.6,0.0,0,1001.7,3,5,"",87
"2014-05-23 03:57:00",10.7,8.6,0.6,0.0,0,1001.7,2,1,"",87
"2014-05-23 03:58:00",10.7,8.6,0.6,0.0,0,1001.7,0,1,"",87
"2014-05-23 03:59:00",10.7,8.6,0.6,0.0,0,1001.7,1,5,"",87
"2014-05-23 04:00:00",10.7,8.5,0.6,0.0,0,1001.7,2,5,"",86
"2014-05-23 04:01:00",10.7,8.6,0.6,0.0,0,1001.7,1,3,"",87
"2014-05-23 04:02:00",10.7,8.6,0.6,0.0,0,1001.7,2,3,"",87
"2014-05-23 04:03:00",10.7,8.6,0.6,0.0,0,1001.7,1,1,"",87
"2014-05-23 04:04:00",10.7,8.8,0.6,0.0,0,1001.7,0,0,"",88
"2014-05-23 04:05:00",10.6,8.7,0.6,0.0,0,1001.7,0,1,"",88
"2014-05-23 04:06:00",10.6,8.6,0.6,0.0,0,1001.7,1,14,"",87
"2014-05-23 04:07:00",10.5,8.6,0.6,0.0,0,1001.7,5,7,"",88
"2014-05-23 04:08:00",10.5,8.4,0.6,0.0,0,1001.7,2,3,"",87
"2014-05-23 04:09:00",10.4,8.4,0.6,0.0,0,1001.7,2,7,"",87
"2014-05-23 04:10:00",10.5,8.4,0.6,0.0,0,1001.7,2,3,"",87
"2014-05-23 04:11:00",10.5,8.4,0.6,0.0,0,1001.7,1,1,"",87
"2014-05-23 04:12:00",10.5,8.4,0.6,0.0,0,1001.7,1,5,"",87
"2014-05-23 04:13:00",10.5,8.3,0.6,0.0,0,1001.7,2,3,"",86
"2014-05-23 04:14:00",10.5,8.3,0.6,0.0,0,1001.8,1,3,"",86
"2014-05-23 04:15:00",10.5,8.3,0.6,0.0,0,1001.8,1,3,"",86
"2014-05-23 04:16:00",10.5,8.3,0.6,0.0,0,1001.8,2,7,"",86
"2014-05-23 04:17:00",10.5,8.3,0.6,0.0,0,1001.7,2,1,"",86
"2014-05-23 04:18:00",10.5,8.3,0.6,0.0,0,1001.7,0,1,"",86
"2014-05-23 04:19:00",10.5,8.3,0.6,0.0,0,1001.7,1,5,"",86
"2014-05-23 04:20:00",10.5,8.3,0.6,0.0,0,1001.7,3,5,"",86
"2014-05-23 04:21:00",10.5,8.3,0.6,0.0,0,1001.6,2,3,"",86
"2014-05-23 04:22:00",10.5,8.3,0.6,0.0,0,1001.7,2,3,"",86
"2014-05-23 04:23:00",10.5,8.3,0.6,0.0,0,1001.6,1,5,"",86
"2014-05-23 04:24:00",10.5,8.3,0.6,0.0,0,1001.6,2,3,"",86
"2014-05-23 04:25:00",10.5,8.3,0.6,0.0,0,1001.6,1,1,"",86
"2014-05-23 04:26:00",10.6,8.3,0.6,0.0,0,1001.6,1,1,"",86
"2014-05-23 04:27:00",10.6,8.3,0.6,0.0,0,1001.6,0,0,"",86
"2014-05-23 04:28:00",10.6,8.5,0.6,0.0,0,1001.6,0,0,"",87
"2014-05-23 04:29:00",10.5,8.4,0.6,0.0,0,1001.6,0,0,"",87
"2014-05-23 04:30:00",10.5,8.4,0.6,0.0,0,1001.6,0,0,"",87
"2014-05-23 04:31:00",10.5,8.6,0.6,0.0,0,1001.6,0,1,"",88
"2014-05-23 04:32:00",10.4,8.5,0.6,0.0,0,1001.6,0,0,"",88
"2014-05-23 04:33:00",10.4,8.7,0.6,0.0,0,1001.6,0,1,"",89
"2014-05-23 04:34:00",10.3,8.6,0.6,0.0,0,1001.6,0,1,"",89
"2014-05-23 04:35:00",10.3,8.5,0.6,0.0,0,1001.6,0,5,"",89
"2014-05-23 04:36:00",10.3,8.6,0.6,0.0,0,1001.6,1,7,"",89
"2014-05-23 04:37:00",10.3,8.6,0.6,0.0,0,1001.6,1,1,"",89
"2014-05-23 04:38:00",10.3,8.6,0.6,0.0,0,1001.6,0,1,"",89
"2014-05-23 04:39:00",10.3,8.6,0.6,0.0,0,1001.6,1,1,"",89
"2014-05-23 04:40:00",10.3,8.6,0.6,0.0,0,1001.6,0,0,"",89
"2014-05-23 04:41:00",10.3,8.6,0.6,0.0,0,1001.7,0,0,"",89
"2014-05-23 04:42:00",10.3,8.6,0.6,0.0,0,1001.6,1,3,"",89
"2014-05-23 04:43:00",10.3,8.6,0.6,0.0,0,1001.6,2,5,"",89
"2014-05-23 04:44:00",10.3,8.6,0.6,0.0,0,1001.6,2,3,"",89
"2014-05-23 04:45:00",10.3,8.4,0.6,0.0,0,1001.6,2,3,"",88
"2014-05-23 04:46:00",10.3,8.4,0.6,0.0,0,1001.6,2,7,"",88
"2014-05-23 04:47:00",10.4,8.5,0.6,0.0,0,1001.6,2,3,"",88
"2014-05-23 04:48:00",10.4,8.5,0.6,0.0,0,1001.6,1,1,"",88
"2014-05-23 04:49:00",10.4,8.7,0.6,0.0,0,1001.6,1,5,"",89
"2014-05-23 04:50:00",10.4,8.6,0.6,0.0,0,1001.6,1,3,"",89
"2014-05-23 04:51:00",10.3,8.4,0.6,0.0,0,1001.6,1,3,"",88
"2014-05-23 04:52:00",10.3,8.4,0.6,0.0,0,1001.6,1,3,"",88
"2014-05-23 04:53:00",10.3,8.4,0.6,0.0,0,1001.6,1,5,"",88
"2014-05-23 04:54:00",10.3,8.4,0.6,0.0,0,1001.6,2,5,"",88
"2014-05-23 04:55:00",10.3,8.4,0.6,0.0,0,1001.6,2,5,"",88
"2014-05-23 04:56:00",10.4,8.5,0.6,0.0,0,1001.6,2,5,"",88
"2014-05-23 04:57:00",10.4,8.3,0.6,0.0,0,1001.6,2,7,"",87
"2014-05-23 04:58:00",10.4,8.4,0.6,0.0,0,1001.6,2,3,"",87
"2014-05-23 04:59:00",10.4,8.4,0.6,0.0,0,1001.6,1,5,"",87
"2014-05-23 05:00:00",10.4,8.4,0.6,0.0,0,1001.7,2,5,"",87
"2014-05-23 05:01:00",10.4,8.2,0.6,0.0,0,1001.7,2,5,"",86
"2014-05-23 05:02:00",10.5,8.2,0.6,0.0,0,1001.7,1,5,"",86
"2014-05-23 05:03:00",10.5,8.3,0.6,0.0,0,1001.7,2,5,"",86
"2014-05-23 05:04:00",10.5,8.3,0.6,0.0,0,1001.7,2,8,"",86
"2014-05-23 05:05:00",10.5,8.1,0.6,0.0,0,1001.7,3,8,"",85
"2014-05-23 05:06:00",10.5,8.3,0.6,0.0,0,1001.7,1,3,"",86
"2014-05-23 05:07:00",10.6,8.3,0.6,0.0,0,1001.7,1,3,"",86
"2014-05-23 05:08:00",10.6,8.3,0.6,0.0,0,1001.7,2,5,"",86
"2014-05-23 05:09:00",10.6,8.1,0.6,0.0,0,1001.7,2,1,"",85
"2014-05-23 05:10:00",10.6,8.1,0.6,0.0,0,1001.7,1,7,"",85
"2014-05-23 05:11:00",10.6,8.1,0.6,0.0,0,1001.7,3,7,"",85
"2014-05-23 05:12:00",10.6,8.1,0.6,0.0,0,1001.7,2,5,"",85
"2014-05-23 05:13:00",10.6,8.0,0.6,0.0,0,1001.7,2,7,"",84
"2014-05-23 05:14:00",10.6,8.0,0.6,0.0,0,1001.7,3,10,"",84
"2014-05-23 05:15:00",10.6,8.0,0.6,0.0,0,1001.7,5,8,"",84
"2014-05-23 05:16:00",10.6,8.0,0.6,0.0,0,1001.7,3,8,"",84
"2014-05-23 05:17:00",10.6,8.2,0.6,0.0,0,1001.8,2,1,"",85
"2014-05-23 05:18:00",10.6,8.0,0.6,0.0,0,1001.8,2,7,"",84
"2014-05-23 05:19:00",10.6,8.2,0.6,0.0,0,1001.7,3,5,"",85
"2014-05-23 05:20:00",10.6,8.2,0.6,0.0,0,1001.7,1,3,"",85
"2014-05-23 05:21:00",10.6,8.1,0.6,0.0,0,1001.8,1,3,"",85
"2014-05-23 05:22:00",10.5,8.1,0.6,0.0,0,1001.8,1,3,"",85
"2014-05-23 05:23:00",10.5,8.3,0.6,0.0,0,1001.8,1,5,"",86
"2014-05-23 05:24:00",10.5,8.3,0.6,0.0,0,1001.9,1,8,"",86
"2014-05-23 05:25:00",10.5,8.2,0.6,0.0,0,1001.8,2,7,"",86
"2014-05-23 05:26:00",10.4,8.0,0.6,0.0,0,1001.8,3,7,"",85
"2014-05-23 05:27:00",10.4,8.0,0.6,0.0,0,1001.8,1,1,"",85
"2014-05-23 05:28:00",10.4,8.2,0.6,0.0,0,1001.8,0,3,"",86
"2014-05-23 05:29:00",10.4,8.2,0.6,0.0,0,1001.8,1,3,"",86
"2014-05-23 05:30:00",10.4,8.2,0.6,0.0,0,1001.8,2,8,"",86
"2014-05-23 05:31:00",10.4,8.0,0.6,0.0,0,1001.8,1,5,"",85
"2014-05-23 05:32:00",10.4,8.0,0.6,0.0,5,1001.8,2,5,"",85
"2014-05-23 05:33:00",10.4,8.0,0.6,0.0,5,1001.8,2,3,"",85
"2014-05-23 05:34:00",10.4,8.2,0.6,0.0,5,1001.8,1,1,"",86
"2014-05-23 05:35:00",10.4,8.2,0.6,0.0,5,1001.8,1,3,"",86
"2014-05-23 05:36:00",10.4,8.2,0.6,0.0,5,1001.8,1,3,"",86
"2014-05-23 05:37:00",10.4,8.0,0.6,0.0,5,1001.8,2,3,"",85
"2014-05-23 05:38:00",10.4,8.0,0.6,0.0,5,1001.8,2,3,"",85
"2014-05-23 05:39:00",10.4,7.9,0.6,0.0,5,1001.8,2,3,"",85
"2014-05-23 05:40:00",10.5,7.9,0.6,0.0,5,1001.9,2,3,"",84
"2014-05-23 05:41:00",10.5,8.1,0.6,0.0,5,1001.9,1,7,"",85
"2014-05-23 05:42:00",10.5,7.9,0.6,0.0,5,1001.9,3,7,"",84
"2014-05-23 05:43:00",10.5,7.9,0.6,0.0,7,1001.9,2,3,"",84
"2014-05-23 05:44:00",10.5,7.9,0.6,0.0,7,1001.8,2,3,"",84
"2014-05-23 05:45:00",10.5,7.9,0.6,0.0,5,1001.8,1,1,"",84
"2014-05-23 05:46:00",10.5,7.9,0.6,0.0,5,1001.9,1,3,"",84
"2014-05-23 05:47:00",10.4,7.9,0.6,0.0,5,1001.9,1,5,"",85
"2014-05-23 05:48:00",10.4,7.9,0.6,0.0,7,1001.9,1,5,"",85
"2014-05-23 05:49:00",10.4,7.9,0.6,0.0,5,1001.9,1,3,"",85
"2014-05-23 05:50:00",10.5,7.9,0.6,0.0,5,1001.9,1,5,"",84
"2014-05-23 05:51:00",10.5,7.9,0.6,0.0,5,1001.9,3,5,"",84
"2014-05-23 05:52:00",10.5,7.7,0.6,0.0,0,1001.9,1,1,"",83
"2014-05-23 05:53:00",10.5,8.0,0.6,0.0,0,1001.9,0,1,"",85
"2014-05-23 05:54:00",10.5,7.9,0.6,0.0,0,1001.9,0,0,"",84
"2014-05-23 05:55:00",10.5,7.9,0.6,0.0,0,1001.9,0,0,"",84
"2014-05-23 05:56:00",10.5,8.1,0.6,0.0,0,1001.9,0,0,"",85
"2014-05-23 05:57:00",10.5,8.0,0.6,0.0,11,1001.9,1,7,"",85
"2014-05-23 05:58:00",10.4,8.0,0.6,0.0,14,1001.9,3,7,"",85
"2014-05-23 05:59:00",10.4,8.0,0.6,0.0,14,1001.9,2,5,"",85
"2014-05-23 06:00:00",10.4,8.0,0.6,0.0,14,1001.9,2,3,"",85
"2014-05-23 06:01:00",10.4,8.0,0.6,0.0,14,1001.9,2,3,"",85
"2014-05-23 06:02:00",10.4,8.0,0.6,0.0,14,1001.9,1,1,"",85
"2014-05-23 06:03:00",10.4,8.0,0.6,0.0,16,1001.9,0,3,"",85
"2014-05-23 06:04:00",10.4,8.0,0.6,0.0,18,1001.9,1,3,"",85
"2014-05-23 06:05:00",10.4,8.0,0.6,0.0,25,1001.9,1,3,"",85
"2014-05-23 06:07:00",10.4,8.0,0.6,0.0,30,1001.9,1,1,"",85
"2014-05-23 06:08:00",10.4,8.2,0.6,0.0,33,1001.9,0,1,"",86
"2014-05-23 06:09:00",10.4,8.0,0.6,0.0,35,1001.9,0,1,"",85
"2014-05-23 06:10:00",10.4,8.2,0.6,0.0,33,1001.9,1,3,"",86
"2014-05-23 06:11:00",10.4,8.2,0.6,0.0,33,1001.9,1,1,"",86
"2014-05-23 06:12:00",10.4,8.2,0.6,0.0,32,1001.9,1,5,"",86
"2014-05-23 06:13:00",10.4,8.2,0.6,0.0,32,1001.9,2,5,"",86
"2014-05-23 06:14:00",10.4,7.9,0.6,0.0,28,1001.8,2,3,"",85
"2014-05-23 06:15:00",10.5,7.9,0.6,0.0,19,1001.9,2,5,"",84
"2014-05-23 06:16:00",10.5,7.9,0.6,0.0,21,1001.8,2,3,"",84
"2014-05-23 06:17:00",10.6,8.0,0.6,0.0,19,1001.8,1,3,"",84
"2014-05-23 06:18:00",10.6,8.0,0.6,0.0,14,1001.8,1,3,"",84
"2014-05-23 06:19:00",10.6,7.8,0.6,0.0,12,1001.8,1,3,"",83
"2014-05-23 06:20:00",10.6,8.0,0.6,0.0,9,1001.8,1,1,"",84
"2014-05-23 06:21:00",10.6,8.0,0.6,0.0,9,1001.8,1,1,"",84
"2014-05-23 06:22:00",10.6,7.8,0.6,0.0,7,1001.8,1,1,"",83
"2014-05-23 06:23:00",10.6,8.0,0.6,0.0,7,1001.9,0,10,"",84
"2014-05-23 06:24:00",10.6,8.2,0.6,0.0,9,1001.9,2,12,"",85
"2014-05-23 06:25:00",10.6,8.0,0.6,0.0,12,1001.8,6,8,"",84
"2014-05-23 06:26:00",10.6,8.0,0.6,0.0,16,1001.8,2,3,"",84
"2014-05-23 06:27:00",10.6,8.2,0.6,0.0,19,1001.8,2,5,"",85
"2014-05-23 06:28:00",10.6,8.0,0.6,0.0,19,1001.9,2,7,"",84
"2014-05-23 06:29:00",10.7,8.1,0.6,0.0,16,1001.8,2,8,"",84
"2014-05-23 06:30:00",10.7,8.1,0.6,0.0,12,1001.8,3,5,"",84
"2014-05-23 06:31:00",10.7,8.1,0.6,0.0,12,1001.8,1,1,"",84
"2014-05-23 06:32:00",10.7,8.1,0.6,0.0,12,1001.8,0,1,"",84
"2014-05-23 06:33:00",10.7,8.3,0.6,0.0,21,1001.8,1,7,"",85
"2014-05-23 06:34:00",10.7,8.1,0.6,0.0,25,1001.8,2,7,"",84
"2014-05-23 06:35:00",10.7,8.1,0.6,0.0,28,1001.8,1,1,"",84
"2014-05-23 06:36:00",10.7,8.1,0.6,0.0,32,1001.8,1,1,"",84
"2014-05-23 06:37:00",10.8,8.2,0.6,0.0,32,1001.8,0,0,"",84
"2014-05-23 06:38:00",10.8,8.4,0.6,0.0,16,1001.8,0,3,"",85
"2014-05-23 06:39:00",10.8,8.2,0.6,0.0,14,1001.8,1,3,"",84
"2014-05-23 06:40:00",10.8,8.2,0.6,0.0,12,1001.8,2,7,"",84
"2014-05-23 06:41:00",10.8,8.2,0.6,0.0,12,1001.8,3,10,"",84
"2014-05-23 06:42:00",10.8,8.2,0.6,0.0,12,1001.8,3,3,"",84
"2014-05-23 06:43:00",10.8,8.2,0.6,0.0,11,1001.9,2,3,"",84
"2014-05-23 06:44:00",10.8,8.2,0.6,0.0,12,1001.9,2,5,"",84
"2014-05-23 06:45:00",10.8,8.2,0.6,0.0,12,1001.9,2,5,"",84
"2014-05-23 06:46:00",10.8,8.2,0.6,0.0,16,1001.9,1,1,"",84
"2014-05-23 06:47:00",10.8,8.4,0.6,0.0,19,1001.9,0,1,"",85
"2014-05-23 06:48:00",10.8,8.4,0.6,0.0,19,1001.9,1,3,"",85
"2014-05-23 06:49:00",10.8,8.4,0.6,0.0,23,1002.0,1,5,"",85